Overview Statistics Trail Chart Weather Telemetry Raw packets
 

This is the latest recevied weather packets stored in our database for station/object HP1MRA-15. If no packets are shown the sender has not sent any weather packets the latest 10 day(s).

<< 58 59 60 61 62 63 64 >>
Time Temp. Humidity Pressure Rain* Wind** Luminosity Snow
1788294719 30° C 68% 1002.2 hPa 0 mm - - -
1788294422 30° C 67% 1002.1 hPa 0 mm - - -
1788294122 30° C 67% 1002.2 hPa 0 mm - - -
1788293820 30° C 67% 1002.1 hPa 0 mm - - -
1788293521 30° C 67% 1002 hPa 0 mm - - -
1788293220 30.56° C 67% 1001.9 hPa 0 mm - - -
1788292921 31.11° C 66% 1001.9 hPa 0 mm - - -
1788292919 31.11° C 66% 1001.9 hPa 0 mm - - -
1788292621 31.67° C 65% 1002.1 hPa 0 mm - - -
1788292320 32.78° C 64% 1002.1 hPa 0 mm - - -
1788292021 33.89° C 63% 1002.3 hPa 0 mm - - -
1788292019 33.89° C 63% 1002.2 hPa 0 mm - - -
1788291720 36.11° C 60% 1002.2 hPa 0 mm - - -
1788291421 38.33° C 63% 1002.2 hPa 0 mm - - -
1788291119 38.89° C 65% 1002 hPa 0 mm - - -
1788290820 38.33° C 65% 1002.1 hPa 0 mm - - -
1788290521 38.33° C 64% 1002.1 hPa 0 mm - - -
1788290220 37.78° C 61% 1002 hPa 0 mm - - -
1788290220 37.78° C 61% 1002.1 hPa 0 mm - - -
1788289920 37.78° C 63% 1002.1 hPa 0 mm - - -
1788289620 37.22° C 65% 1002.2 hPa 0 mm - - -
1788289321 37.22° C 64% 1002.4 hPa 0 mm - - -
1788289319 37.22° C 64% 1002.4 hPa 0 mm - - -
1788289020 37.22° C 63% 1002.5 hPa 0 mm - - -
1788288720 37.78° C 65% 1002.5 hPa 0 mm - - -

* Rain latest hour (hover to see other rain measurements)
** Current wind speed in m/s (hover to see current wind gust speed)